Weather reports worldwide

Advertisment
Ahaus, Germany (10309): temperature & dewpoint: 10.11.2018 05:00:00 - 16.11.2018 05:00:00 (CET)Ahaus, Germany (10309): temperature 5cm & temperature -5cm: 10.11.2018 05:00:00 - 16.11.2018 05:00:00 (CET)Ahaus, Germany (10309): temperature -20cm & temperature -100cm: 10.11.2018 05:00:00 - 16.11.2018 05:00:00 (CET)Ahaus, Germany (10309): wind speed & gusts: 10.11.2018 05:00:00 - 16.11.2018 05:00:00 (CET)Ahaus, Germany (10309): wind direction: 10.11.2018 05:00:00 - 16.11.2018 05:00:00 (CET)Ahaus, Germany (10309): reduced air pressure: 10.11.2018 05:00:00 - 16.11.2018 05:00:00 (CET)Ahaus, Germany (10309): visibility: 10.11.2018 05:00:00 - 16.11.2018 05:00:00 (CET)Ahaus, Germany (10309): sunshine duration: 10.11.2018 05:00:00 - 16.11.2018 05:00:00 (CET)Ahaus, Germany (10309): precipitation: 10.11.2018 05:00:00 - 16.11.2018 05:00:00 (CET)
Date & Time tt [°C] td [°C] tt 5cm [°C] tt -5cm [°C] tt -20cm [°C] tt -100cm [°C] ff [km/h] ff [kn] fx [km/h] fx [kn] dd ppp [hPa] vv [km] sd [min] rr [mm]
16.11.2018 05:00:00 -2,2 -2,4 -4,1 1,9 5,4 10,7 5 3 9 5 E 1027,6 2,7 0 0,0
16.11.2018 04:00:00 -2,8 -3,0 -4,3 2,0 5,5 10,8 3 2 18 10 ENE 1027,8 0,2 0 0,0
16.11.2018 03:00:00 -2,1 -2,1 -3,6 2,1 5,7 10,8 4 2 6 3 E 1027,5 0,1 0 0,0
16.11.2018 02:00:00 -1,7 -1,7 -4,1 2,2 5,9 10,8 3 2 19 10 E 1027,4 0,2 0 0,0
16.11.2018 01:00:00 -1,2 -1,3 -3,6 2,4 6,2 10,8 4 2 5 3 ESE 1026,9 0,1 0 0,0
16.11.2018 00:00:00 -0,5 -0,5 -3,1 2,6 6,4 10,8 4 2 7 4 SE 1027,2 0,2 0 0,0
15.11.2018 23:00:00 -0,3 -0,5 -2,9 3,0 6,7 10,8 3 2 19 10 SE 1027,0 4,4 0 0,0
15.11.2018 22:00:00 0,2 0,2 -2,0 3,5 6,9 10,8 6 3 19 10 SE 1026,5 2,2 0 0,0
15.11.2018 21:00:00 1,8 1,8 -2,2 4,0 7,2 10,8 2 1 7 4 SE 1026,3 3,0 0 0,0
15.11.2018 20:00:00 2,0 1,5 -1,7 4,6 7,4 10,8 4 2 8 5 E 1026,0 5 0 0,0
15.11.2018 19:00:00 2,5 2,0 -1,3 5,4 7,6 10,8 4 2 10 5 E 1026,1 8 0 0,0
15.11.2018 18:00:00 4,0 2,4 0,2 6,4 7,7 10,9 5 3 9 5 E 1025,7 12 0 0,0
15.11.2018 17:00:00 7,1 3,5 2,9 7,7 7,7 10,9 8 4 14 7 SE 1025,5 17 9 0,0
15.11.2018 16:00:00 10,0 4,0 9,4 9,0 7,4 10,9 6 3 13 7 ESE 1025,6 23 60 0,0
15.11.2018 15:00:00 10,7 3,8 11,7 9,5 7,1 10,9 11 6 16 9 SE 1025,5 24 60 0,0
15.11.2018 14:00:00 10,6 3,6 12,5 9,3 6,6 10,9 8 4 13 7 SE 1025,5 20 60 0,0
15.11.2018 13:00:00 10,0 4,3 11,7 8,5 6,2 10,9 8 4 13 7 SE 1025,9 20 60 0,0
15.11.2018 12:00:00 8,7 4,5 11,0 6,8 5,9 10,9 7 4 13 7 SE 1026,3 16 60 0,0
15.11.2018 11:00:00 6,7 3,9 8,4 4,9 5,8 10,9 9 5 11 6 SE 1026,6 10 60 0,0
15.11.2018 10:00:00 4,5 3,2 6,4 3,1 5,8 10,9 7 4 10 6 ESE 1026,7 6 60 0,0
15.11.2018 09:00:00 0,7 0,3 0,0 2,2 6,0 10,9 7 4 10 5 ESE 1026,8 2,1 27 0,0
15.11.2018 08:00:00 -0,5 -0,5 -2,7 2,3 6,2 10,9 7 4 10 5 ESE 1026,6 0,2 0 0,0
15.11.2018 07:00:00 -0,7 -0,7 -3,2 2,4 6,4 10,9 6 3 8 5 E 1026,3 0,1 0 0,0
15.11.2018 06:00:00 -0,2 -0,4 -2,7 2,7 6,6 10,9 5 3 7 4 ESE 1026,2 0,8 0 0,0
15.11.2018 05:00:00 0,8 0,8 -2,5 2,9 6,9 10,9 5 3 7 4 ESE 1026,3 0,2 0 0,0
15.11.2018 04:00:00 0,8 0,8 -2,0 3,3 7,1 10,9 5 3 7 4 ESE 1026,3 0,3 0 0,0
15.11.2018 03:00:00 1,6 1,6 -1,4 3,7 7,3 10,9 4 2 7 4 ESE 1026,3 0,2 0 0,0
15.11.2018 02:00:00 2,3 2,2 -1,0 4,0 7,5 10,9 5 3 9 5 SE 1026,3 2,4 0 0,0
15.11.2018 01:00:00 2,8 2,3 -0,9 4,5 7,8 10,9 4 2 9 5 E 1026,5 3,5 0 0,0
15.11.2018 00:00:00 5,5 4,1 1,6 4,8 8,0 10,9 8 5 12 7 SSE 1026,4 19 0 0,0
14.11.2018 23:00:00 3,6 3,5 0,6 5,1 8,2 10,9 8 5 10 5 SE 1026,6 9 0 0,0
14.11.2018 22:00:00 3,7 3,4 0,0 5,6 8,5 10,9 4 2 7 4 ESE 1026,8 9 0 0,0
14.11.2018 21:00:00 4,4 4,2 1,4 6,1 8,7 11,0 5 3 8 4 E 1026,9 8 0 0,0
14.11.2018 20:00:00 4,1 3,7 1,6 6,7 8,9 11,0 5 3 8 5 ESE 1027,0 7 0 0,0
14.11.2018 19:00:00 5,0 4,3 2,7 7,4 9,1 11,0 5 3 8 4 SE 1027,1 8 0 0,0
14.11.2018 18:00:00 7,7 5,8 3,7 8,3 9,2 11,0 5 3 12 6 S 1027,0 19 0 0,0
14.11.2018 17:00:00 9,3 6,3 5,6 9,3 9,2 11,0 7 4 14 8 SSE 1027,0 21 0 0,0
14.11.2018 16:00:00 11,1 7,1 9,7 10,3 9,0 11,0 10 6 15 8 SSE 1027,4 22 30 0,0
14.11.2018 15:00:00 11,9 7,3 12,1 10,9 8,8 11,0 13 7 19 11 S 1027,5 23 60 0,0
14.11.2018 14:00:00 12,2 8,0 13,2 10,9 8,4 11,0 13 7 21 11 SSW 1028,1 22 60 0,0
14.11.2018 13:00:00 12,1 8,2 12,9 10,3 8,1 11,0 11 6 21 11 SSW 1028,4 22 60 0,0
14.11.2018 12:00:00 11,0 7,4 12,2 9,3 7,8 11,0 15 8 21 12 S 1028,3 17 60 0,0
14.11.2018 11:00:00 10,2 7,1 11,5 7,8 7,7 11,0 11 6 17 9 S 1029,0 16 60 0,0
14.11.2018 10:00:00 8,5 6,2 8,7 6,2 7,7 11,0 9 5 14 7 S 1028,9 17 60 0,0
14.11.2018 09:00:00 6,6 5,5 5,8 5,2 7,8 11,0 7 4 11 6 S 1028,8 10 23 0,0
14.11.2018 08:00:00 5,6 5,0 2,6 5,3 8,0 11,0 6 4 14 7 S 1028,6 7 0 0,0
14.11.2018 07:00:00 6,2 5,5 4,0 5,5 8,1 11,0 9 5 16 9 S 1028,1 9 0 0,0
14.11.2018 06:00:00 6,5 5,7 4,7 5,8 8,3 11,0 9 5 16 9 S 1028,1 10 0 0,0
14.11.2018 05:00:00 6,7 5,9 4,8 5,9 8,4 11,0 10 5 15 8 S 1028,2 10 0 0,0
14.11.2018 04:00:00 6,5 5,7 4,7 6,2 8,6 11,0 10 5 15 8 SSW 1028,6 9 0 0,0
14.11.2018 03:00:00 6,7 6,0 4,9 6,4 8,7 11,0 8 5 12 6 SSW 1029,0 9 0 0,0
14.11.2018 02:00:00 6,9 6,1 5,2 6,6 8,9 11,0 9 5 16 9 SSW 1028,8 10 0 0,0
14.11.2018 01:00:00 7,2 6,4 5,3 7,0 9,1 11,0 9 5 16 9 SSW 1028,5 10 0 0,0
14.11.2018 00:00:00 7,7 6,5 6,0 7,4 9,2 11,0 8 5 19 11 SW 1028,5 14 0 0,0
13.11.2018 23:00:00 8,7 6,8 7,2 7,8 9,3 11,0 13 7 21 12 SW 1028,0 20 0 0,0
13.11.2018 22:00:00 9,5 7,0 8,0 8,0 9,4 11,0 12 7 22 12 SW 1027,7 23 0 0,0
13.11.2018 21:00:00 9,4 6,8 7,9 8,2 9,6 11,0 13 7 21 12 SW 1027,2 27 0 0,0
13.11.2018 20:00:00 9,9 6,8 8,5 8,6 9,7 11,0 13 7 21 12 SW 1026,8 30 0 0,0
13.11.2018 19:00:00 10,4 6,9 9,4 8,9 9,8 11,0 13 7 21 12 SW 1026,2 28 0 0,0
13.11.2018 18:00:00 10,6 6,9 9,3 9,3 9,9 11,0 12 7 24 13 SW 1025,6 32 0 0,0
13.11.2018 17:00:00 11,3 7,0 10,2 9,8 9,9 11,0 11 6 30 16 SW 1024,8 31 0 0,0
13.11.2018 16:00:00 11,7 6,9 11,0 10,5 9,8 11,0 16 9 43 23 WSW 1023,9 36 37 0,0
13.11.2018 15:00:00 12,0 7,1 11,6 10,8 9,7 10,9 23 13 45 24 WSW 1023,0 28 4 0,0
13.11.2018 14:00:00 11,5 7,2 11,4 11,0 9,5 10,9 21 11 42 23 WSW 1022,5 37 12 0,0
13.11.2018 13:00:00 11,6 6,7 12,2 10,8 9,4 10,9 23 12 44 24 WSW 1021,9 24 36 0,0
13.11.2018 12:00:00 11,6 7,9 12,2 10,0 9,2 10,9 22 12 43 23 SW 1021,4 24 1 0,0
13.11.2018 11:00:00 11,1 7,8 11,3 9,4 9,2 10,9 26 14 52 28 SW 1020,9 16 32 0,0
13.11.2018 10:00:00 10,4 7,5 9,8 8,9 9,1 10,9 23 13 42 23 SW 1020,7 17 0 0,0
13.11.2018 09:00:00 9,8 8,1 9,5 8,3 9,2 10,9 22 12 32 18 SW 1020,1 12 0 0,0
13.11.2018 08:00:00 9,2 7,6 8,3 8,1 9,3 10,9 20 11 32 17 SW 1019,6 17 0 0,0
13.11.2018 07:00:00 9,0 7,4 7,7 8,2 9,3 10,9 17 9 26 14 SW 1019,0 18 0 0,0
13.11.2018 06:00:00 9,1 7,5 8,1 8,4 9,4 10,9 13 7 25 14 SSW 1018,6 12 0 0,0
13.11.2018 05:00:00 9,1 7,8 8,1 8,4 9,5 10,9 13 7 19 10 SSW 1018,7 7 0 0,0
13.11.2018 04:00:00 9,0 7,9 7,8 8,5 9,5 10,9 9 5 17 9 SSW 1018,5 6 0 0,0
13.11.2018 03:00:00 9,2 8,3 8,1 8,7 9,6 10,9 8 5 16 9 S 1018,7 4,9 0 0,0
13.11.2018 02:00:00 9,3 8,4 8,3 8,8 9,7 10,9 9 5 18 10 S 1018,3 4,7 0 0,0
13.11.2018 01:00:00 9,2 8,7 8,3 8,8 9,8 10,9 10 5 14 8 S 1018,4 3,1 0 0,0
13.11.2018 00:00:00 9,1 8,6 8,1 9,1 9,9 10,9 6 3 10 5 S 1018,3 3,4 0 0,0
12.11.2018 23:00:00 9,4 8,9 8,5 9,3 9,9 10,9 7 4 13 7 SSW 1017,6 3,9 0 0,0
12.11.2018 22:00:00 9,8 9,0 9,0 9,6 10,0 10,9 8 4 13 7 SSW 1018,0 5 0 0,0
12.11.2018 21:00:00 10,1 9,4 9,5 9,7 10,0 10,9 9 5 15 8 SSW 1017,6 7 0 0,0
12.11.2018 20:00:00 10,3 9,7 9,5 10,0 10,1 10,9 7 4 11 6 SW 1017,1 4,5 0 0,0
12.11.2018 19:00:00 10,4 9,8 9,8 10,2 10,1 10,9 8 4 16 9 SSW 1016,0 7 0 0,0
12.11.2018 18:00:00 10,7 10,0 10,2 10,3 10,1 10,9 6 3 10 6 WSW 1015,4 9 0 0,0
12.11.2018 17:00:00 10,7 10,0 10,1 10,6 10,0 10,9 5 3 11 6 W 1014,3 15 0 0,0
12.11.2018 16:00:00 10,8 10,1 10,7 10,7 10,0 10,9 4 2 8 4 WSW 1013,6 12 0 0,0
12.11.2018 15:00:00 10,7 10,2 10,7 10,5 9,9 10,9 6 3 12 6 WNW 1013,0 3,9 0 0,3
12.11.2018 14:00:00 10,8 10,1 10,7 10,5 9,8 10,9 6 3 19 10 W 1012,9 5 0 0,0
12.11.2018 13:00:00 10,8 10,3 10,9 10,2 9,8 10,9 2 1 19 10 ENE 1012,3 7 0 0,0
12.11.2018 12:00:00 10,5 10,2 10,5 10,0 9,8 10,9 2 1 19 10 NE 1012,1 4,6 0 0,2
12.11.2018 11:00:00 10,5 10,3 10,4 9,9 9,7 10,9 3 2 19 10 E 1012,4 3,1 0 0,7
12.11.2018 10:00:00 10,4 9,9 10,0 9,7 9,7 10,9 5 3 11 6 SE 1012,6 10 0 0,2
12.11.2018 09:00:00 10,3 9,8 9,9 9,5 9,7 10,8 8 4 12 7 SSE 1012,9 6 0 0,9
12.11.2018 08:00:00 9,9 9,5 9,4 9,4 9,7 10,8 6 4 10 6 SSE 1012,8 5 0 0,3
12.11.2018 07:00:00 9,8 9,3 9,2 9,4 9,8 10,8 8 4 11 6 ESE 1012,5 6 0 0,2
12.11.2018 06:00:00 10,3 9,3 9,4 9,5 9,8 10,8 8 5 15 8 SE 1012,5 10 0 0,2
12.11.2018 05:00:00 10,3 9,2 9,8 9,4 9,8 10,8 10 5 16 8 SSE 1012,9 13 0 0,0
12.11.2018 04:00:00 10,2 9,0 9,4 9,5 9,9 10,8 8 5 18 10 SSE 1012,4 18 0 0,0
12.11.2018 03:00:00 10,8 9,1 9,8 9,5 9,9 10,8 13 7 21 11 S 1012,6 34 0 0,0
12.11.2018 02:00:00 10,6 9,1 9,6 9,5 10,0 10,8 10 5 22 12 S 1012,6 36 0 0,0
12.11.2018 01:00:00 10,9 9,5 9,9 9,6 10,0 10,8 13 7 22 12 S 1012,4 29 0 0,0
12.11.2018 00:00:00 10,9 9,9 9,9 9,7 10,1 10,8 14 7 19 11 S 1011,6 15 0 0,0
11.11.2018 23:00:00 10,8 9,8 9,7 10,0 10,1 10,8 10 5 21 12 S 1010,9 12 0 0,0
11.11.2018 22:00:00 10,6 9,7 10,0 10,1 10,2 10,8 8 4 16 9 SSW 1010,7 41 0 0,8
11.11.2018 21:00:00 10,3 9,4 9,7 10,2 10,2 10,8 10 5 25 14 SSW 1009,9 17 0 2,6
11.11.2018 20:00:00 10,7 9,4 10,0 10,4 10,2 10,8 17 9 30 16 WSW 1009,3 3,2 0 2,5
11.11.2018 19:00:00 10,9 9,9 10,2 10,5 10,2 10,8 10 5 25 14 SW 1008,6 18 0 0,3
11.11.2018 18:00:00 11,7 9,2 10,3 10,6 10,2 10,8 16 9 24 13 SSW 1008,0 14 0 0,8
11.11.2018 17:00:00 11,6 10,0 10,7 10,8 10,2 10,8 10 6 32 17 S 1007,6 12 0 0,5
11.11.2018 16:00:00 12,5 9,4 11,1 11,0 10,2 10,8 19 10 34 18 S 1007,2 34 0 0,3
11.11.2018 15:00:00 13,2 8,7 11,7 11,2 10,1 10,8 22 12 40 21 SSW 1006,6 21 0 0,0
11.11.2018 14:00:00 13,7 8,4 13,2 11,2 10,0 10,8 22 12 42 23 SSW 1006,3 57 0 0,0
11.11.2018 13:00:00 13,4 8,5 13,2 11,1 9,9 10,8 25 13 40 22 SSW 1006,2 58 0 0,0
11.11.2018 12:00:00 13,1 8,1 12,8 11,0 9,8 10,8 27 14 43 23 SSW 1005,5 60 4 0,0
11.11.2018 11:00:00 12,7 8,8 13,0 10,5 9,7 10,8 25 14 38 20 SSW 1005,2 39 2 0,0
11.11.2018 10:00:00 11,8 9,2 11,0 10,1 9,7 10,8 18 10 33 18 S 1004,9 44 1 0,2
11.11.2018 09:00:00 11,1 9,1 10,2 9,8 9,7 10,8 22 12 34 19 S 1004,6 3,1 0 0,4
11.11.2018 08:00:00 11,9 8,4 10,5 9,7 9,7 10,8 17 9 34 19 S 1003,8 17 0 0,0
11.11.2018 07:00:00 12,5 8,2 11,5 9,6 9,7 10,8 19 10 36 19 S 1003,4 46 0 0,0
11.11.2018 06:00:00 12,2 8,2 10,9 9,6 9,8 10,8 18 10 34 18 S 1003,2 47 0 0,0
11.11.2018 05:00:00 12,1 8,8 11,0 9,5 9,8 10,8 15 8 30 16 S 1003,3 53 0 0,0
11.11.2018 04:00:00 12,2 8,9 10,4 9,8 9,9 10,8 16 8 31 17 S 1003,3 50 0 0,0
11.11.2018 03:00:00 12,6 9,3 11,0 10,1 9,9 10,8 17 9 29 15 S 1003,3 47 0 0,0
11.11.2018 02:00:00 12,3 9,9 11,1 10,2 9,9 10,8 16 9 29 16 S 1003,3 37 0 0,0
11.11.2018 01:00:00 12,3 10,2 11,3 10,4 9,9 10,8 15 8 30 16 S 1003,3 46 0 0,0
11.11.2018 00:00:00 12,3 10,5 11,4 10,6 9,9 10,8 16 9 32 18 S 1003,3 44 0 0,1
10.11.2018 23:00:00 12,7 11,2 11,7 10,8 9,9 10,8 18 10 33 18 S 1003,1 9 0 0,7
10.11.2018 22:00:00 13,0 11,2 11,8 10,7 9,8 10,8 15 8 23 12 S 1002,9 22 0 0,2
10.11.2018 21:00:00 12,6 11,5 11,8 10,7 9,8 10,8 14 8 33 18 S 1002,7 2,9 0 0,2
10.11.2018 20:00:00 13,3 10,9 12,4 10,5 9,7 10,8 14 8 28 15 S 1002,7 38 0 0,0
10.11.2018 19:00:00 13,1 10,7 11,9 10,5 9,7 10,8 13 7 39 21 S 1002,4 36 0 0,0
10.11.2018 18:00:00 12,8 11,0 11,7 10,7 9,6 10,8 20 11 31 17 SSE 1002,2 25 0 0,1
10.11.2018 17:00:00 12,4 11,0 11,4 10,8 9,6 10,8 16 9 24 13 SE 1002,1 16 0 0,2
10.11.2018 16:00:00 13,0 10,8 12,0 11,0 9,4 10,8 15 8 31 17 S 1002,5 14 0 0,0
10.11.2018 15:00:00 13,2 10,7 12,8 11,0 9,3 10,8 18 10 34 19 S 1002,6 39 0 0,0
10.11.2018 14:00:00 13,6 9,8 13,4 10,7 9,1 10,8 16 9 28 15 S 1002,9 49 0 0,0
10.11.2018 13:00:00 13,5 9,5 13,1 10,4 9,0 10,8 17 9 37 20 S 1003,2 38 0 0,0
10.11.2018 12:00:00 13,1 9,7 12,6 10,2 8,8 10,8 19 10 35 19 S 1003,6 37 0 0,0
10.11.2018 11:00:00 12,9 9,5 12,3 9,9 8,7 10,8 19 11 45 24 S 1003,6 31 0 0,0
10.11.2018 10:00:00 13,8 8,6 13,1 9,7 8,5 10,8 26 14 54 29 S 1002,7 21 0 0,0
10.11.2018 09:00:00 13,8 8,7 12,9 9,1 8,4 10,8 23 12 40 21 S 1002,5 37 0 0,0
10.11.2018 08:00:00 12,9 8,9 10,7 8,5 8,4 10,8 18 10 30 16 SSE 1002,1 36 0 0,3
10.11.2018 07:00:00 11,8 7,8 10,7 8,1 8,3 10,8 14 8 19 11 SSE 1002,2 20 0 0,0
10.11.2018 06:00:00 11,2 7,6 9,7 8,1 8,3 10,8 15 8 24 13 SE 1002,7 13 0 0,0
10.11.2018 05:00:00 11,2 7,8 10,2 8,0 8,2 10,8 18 10 30 16 SE 1003,3 13 0 0,0

tt = temperature
td = dewpoint
tt 5cm = temperature 5cm
tt -5cm = temperature -5cm
tt -20cm = temperature -20cm
tt -100cm = temperature -100cm
ff = wind speed
fx = gusts
dd = wind direction
ppp = reduced air pressure
vv = visibility
sd = sunshine duration
rr = precipitation

Next stations